Weather History for Fredericksburg, VA

Change the Weather History Date:

Thursday, February 14, 2013

  Actual Average (KNYG) Record (KNYG)
Temperature  
Mean Temperature 40 °F -  
Max Temperature 51 °F 46 °F 68 °F (2011)
Min Temperature 28 °F 29 °F 21 °F (2002)
Degree Days  
Heating Degree Days 26    
Moisture  
Dew Point 31 °F    
Average Humidity 75    
Maximum Humidity 100    
Minimum Humidity 37    
Precipitation  
Precipitation 0.02 in - - ()
Sea Level Pressure  
Sea Level Pressure 29.97 in    
Wind  
Wind Speed 2 mph (South)    
Max Wind Speed 10 mph    
Max Gust Speed -    
Visibility 7 miles    
Events Fog    
Averages and records for this station are not official NWS values.
T = Trace of Precipitation, MM = Missing Value Source: NWS Daily Summary

Daily Weather History Graph

Daily Weather History Graph

Search for Another Location

Airport:

Trip Planner

Search our weather history database for the weather conditions in past years. The results will help you decide how hot, cold, wet, or windy it might be!

Date:

Astronomy

Feb. 14, 2013 Rise Set
Actual Time 7:01 AM EST 5:47 PM EST
Civil Twilight 6:33 AM EST 6:14 PM EST
Nautical Twilight 6:03 AM EST 6:45 PM EST
Astronomical Twilight 5:32 AM EST 7:16 PM EST
Moon 9:06 AM EST (2/14) 10:43 PM EST (2/14)
Length of Visible Light 11h 40m
Length of Day
10h 46m
Waxing Crescent, 21% of the Moon is Illuminated
Feb 14
Waxing Crescent
Feb 17
First Quarter
Feb 25
Full
Mar 4
Last Quarter
Mar 11
New

Hourly Weather History & Observations

Time (EST) Temp. Windchill Dew Point Humidity Pressure Visibility Wind Dir Wind Speed Gust Speed Precip Events Conditions
12:15 AM 35.8 °F 33.0 °F 35.6 °F 99% 29.82 in 7.0 mi WNW 3.5 mph - N/A   Mostly Cloudy
12:35 AM 35.8 °F - 35.6 °F 99% 29.82 in 7.0 mi Calm Calm - N/A   Overcast
12:55 AM 35.4 °F - 34.9 °F 98% 29.83 in 7.0 mi Calm Calm - N/A   Mostly Cloudy
1:15 AM 34.7 °F 31.8 °F 34.7 °F 100% 29.83 in 5.0 mi West 3.5 mph - N/A   Mostly Cloudy
1:35 AM 34.5 °F - 34.5 °F 100% 29.84 in 4.0 mi Calm Calm - N/A   Mostly Cloudy
1:55 AM 33.8 °F 29.6 °F 33.8 °F 100% 29.84 in 3.0 mi WNW 4.6 mph - N/A   Scattered Clouds
2:15 AM 32.7 °F - 32.7 °F 100% 29.85 in 1.8 mi Calm Calm - N/A   Mist
2:35 AM 32.0 °F - 32.0 °F 100% 29.86 in 2.0 mi Calm Calm - N/A   Clear
2:55 AM 32.0 °F - 32.0 °F 100% 29.87 in 0.5 mi Calm Calm - N/A Fog Fog
3:15 AM 32.0 °F - 32.0 °F 100% 29.88 in 1.8 mi Calm Calm - N/A   Mist
3:35 AM 31.6 °F - 31.6 °F 100% 29.89 in 1.8 mi Calm Calm - N/A   Mist
3:55 AM 31.5 °F - 31.5 °F 100% 29.89 in 1.5 mi Calm Calm - N/A   Mist
4:15 AM 31.1 °F - 31.1 °F 100% 29.90 in 2.0 mi Calm Calm - N/A   Clear
4:35 AM 30.7 °F - 30.7 °F 100% 29.91 in 1.5 mi Calm Calm - N/A   Mist
4:55 AM 30.9 °F - 30.9 °F 100% 29.92 in 1.5 mi Calm Calm - N/A   Mist
5:15 AM 30.0 °F - 30.0 °F 100% 29.93 in 0.5 mi Calm Calm - N/A Fog Light Freezing Fog
5:35 AM 29.7 °F 26.1 °F 29.7 °F 100% 29.94 in 0.5 mi SSE 3.5 mph - N/A Fog Light Freezing Fog
6:35 AM 28.4 °F - 28.4 °F 100% 29.96 in 2.5 mi Calm Calm - N/A   Scattered Clouds
6:55 AM 28.2 °F 24.4 °F 28.2 °F 100% 29.97 in 0.2 mi SW 3.5 mph - N/A Fog Light Freezing Fog
7:15 AM 29.7 °F - 29.7 °F 100% 29.99 in 2.0 mi Calm Calm - N/A   Scattered Clouds
7:35 AM 30.6 °F - 30.6 °F 100% 29.99 in 2.5 mi Calm Calm - N/A   Clear
7:55 AM 32.0 °F - 32.0 °F 100% 30.00 in 2.5 mi Calm Calm - N/A   Clear
8:15 AM 33.1 °F - 33.1 °F 100% 30.01 in 3.0 mi Calm Calm - N/A   Clear
8:35 AM 35.6 °F - 35.6 °F 100% 30.01 in 5.0 mi Calm Calm - N/A   Clear
8:55 AM 37.8 °F - 37.8 °F 100% 30.01 in 7.0 mi Calm Calm - N/A   Clear
9:15 AM 40.1 °F - 34.9 °F 82% 30.02 in 10.0 mi Calm Calm - N/A   Clear
9:35 AM 41.2 °F 39.2 °F 33.3 °F 73% 30.03 in 10.0 mi North 3.5 mph - N/A   Clear
9:55 AM 42.3 °F - 32.7 °F 69% 30.04 in 10.0 mi Calm Calm - N/A   Clear
10:35 AM 44.4 °F - 32.0 °F 62% 30.03 in 10.0 mi Calm Calm - N/A   Clear
10:55 AM 45.5 °F - 31.8 °F 59% 30.02 in 10.0 mi Calm Calm - N/A   Clear
11:15 AM 46.6 °F - 29.7 °F 52% 30.02 in 10.0 mi NNW 4.6 mph - N/A   Clear
11:35 AM 46.8 °F - 28.6 °F 49% 30.02 in 10.0 mi NW 5.8 mph - N/A   Clear
11:55 AM 47.5 °F - 28.6 °F 48% 30.01 in 10.0 mi Calm Calm - N/A   Clear
12:15 PM 48.4 °F - 28.0 °F 45% 30.01 in 10.0 mi Calm Calm - N/A   Clear
12:35 PM 47.7 °F - 27.7 °F 46% 30.00 in 10.0 mi North 4.6 mph - N/A   Clear
12:55 PM 49.1 °F - 25.5 °F 40% 29.99 in 10.0 mi North 5.8 mph - N/A   Clear
1:15 PM 50.9 °F - 28.6 °F 42% 29.99 in 10.0 mi WSW 6.9 mph - N/A   Clear
1:35 PM 50.5 °F - 27.3 °F 41% 29.98 in 10.0 mi West 5.8 mph - N/A   Clear
1:55 PM 50.5 °F - 27.7 °F 41% 29.98 in 10.0 mi SSW 3.5 mph - N/A   Clear
2:35 PM 50.9 °F - 27.7 °F 41% 29.98 in 10.0 mi Calm Calm - N/A   Clear
2:55 PM 51.8 °F - 27.0 °F 38% 29.98 in 10.0 mi South 4.6 mph - N/A   Clear
3:15 PM 51.1 °F - 26.8 °F 39% 29.97 in 10.0 mi West 3.5 mph - N/A   Clear
3:35 PM 51.8 °F - 27.3 °F 39% 29.96 in 10.0 mi SSE 4.6 mph - N/A   Clear
3:55 PM 51.3 °F - 25.9 °F 37% 29.96 in 10.0 mi South 5.8 mph - N/A   Clear
4:15 PM 51.3 °F - 26.4 °F 38% 29.97 in 10.0 mi South 5.8 mph - N/A   Clear
4:35 PM 50.9 °F - 26.2 °F 38% 29.97 in 10.0 mi SSW 4.6 mph - N/A   Clear
4:55 PM 50.0 °F - 27.0 °F 41% 29.98 in 10.0 mi SSW 5.8 mph - N/A   Clear
5:15 PM 48.6 °F - 27.7 °F 44% 29.98 in 10.0 mi SSE 5.8 mph - N/A   Clear
5:35 PM 47.1 °F - 27.5 °F 47% 29.98 in 10.0 mi South 3.5 mph - N/A   Clear
5:55 PM 44.6 °F 42.2 °F 28.2 °F 53% 29.99 in 10.0 mi SSE 4.6 mph - N/A   Clear
6:15 PM 42.3 °F 39.4 °F 30.0 °F 62% 29.99 in 10.0 mi SSE 4.6 mph - N/A   Clear
6:35 PM 39.7 °F 37.6 °F 30.6 °F 70% 29.99 in 10.0 mi SE 3.5 mph - N/A   Clear
6:55 PM 39.2 °F 37.0 °F 30.6 °F 71% 29.99 in 10.0 mi SSE 3.5 mph - N/A   Clear
7:15 PM 38.7 °F - 31.5 °F 75% 29.99 in 10.0 mi Calm Calm - N/A   Clear
7:35 PM 37.8 °F - 31.6 °F 79% 30.00 in 10.0 mi Calm Calm - N/A   Clear
7:55 PM 37.6 °F - 30.9 °F 77% 30.01 in 10.0 mi Calm Calm - N/A   Clear
8:15 PM 35.6 °F 30.7 °F 30.7 °F 82% 30.01 in 10.0 mi SE 5.8 mph - N/A   Clear
8:35 PM 35.8 °F 33.0 °F 30.2 °F 80% 30.01 in 10.0 mi SE 3.5 mph - N/A   Clear
8:55 PM 34.9 °F 30.8 °F 29.8 °F 82% 30.01 in 10.0 mi SE 4.6 mph - N/A   Clear
9:15 PM 35.6 °F 31.7 °F 30.4 °F 81% 30.01 in 10.0 mi ESE 4.6 mph - N/A   Clear
9:35 PM 34.3 °F - 30.4 °F 85% 30.01 in 10.0 mi Calm Calm - N/A   Clear
9:55 PM 34.7 °F 30.6 °F 30.0 °F 83% 30.01 in 10.0 mi SE 4.6 mph - N/A   Clear
10:35 PM 35.4 °F 30.5 °F 31.1 °F 84% 30.02 in 10.0 mi South 5.8 mph - N/A   Clear
10:55 PM 39.6 °F 33.0 °F 33.8 °F 80% 30.02 in 10.0 mi South 10.4 mph - N/A   Clear
11:15 PM 40.3 °F 34.4 °F 34.2 °F 79% 30.02 in 10.0 mi South 9.2 mph - N/A   Clear
11:35 PM 39.7 °F 35.6 °F 34.2 °F 80% 30.02 in 10.0 mi SSW 5.8 mph - N/A   Clear
11:55 PM 38.7 °F 35.2 °F 33.8 °F 83% 30.02 in 10.0 mi SSW 4.6 mph - N/A   Clear